カタログに戻る

CZ-6A DEB

運用中PO
NORAD 54626·DEBRIS·🇨🇳 China

打ち上げ Nov 11, 2022 から Taiyuan Satellite Launch Center

Loading…

次のパス (今後24時間)

TLE

最新Source: Space-Track

元期: Sep 14, 2026, 10:36 UTC

1 54626U 22151PC  26257.44221896  .00005132  00000-0  90198-3 0  9993
2 54626  98.6085 319.6556 0074255  25.1872 335.2922 14.66318775201865

AllMySatでCZ-6A DEBをリアルタイム追跡

Download on the App Store